Погода в Шарковщине

Погода в Шарковщине : погода сейчас, прогноз погоды и архив. Всё, что Вы хотите узнать о погоде в Шарковщине!

Хотите узнать прогноз погоды в Шарковщине? Тогда Вам сюда: Погода в Шарковщине

Поиск расширенной информации на нашем сайте:

Другие новости

Новости СМИ2

Главная страница сайта

Новости сайта

03.07.2017

Напоминаем, что на нашем специализированном сайте Метеоцентр.Азия вы можете получить высокодетализированные автоматические прогнозы погоды по пунктам России, СНГ и мира в авиационном формате (включающие направление и скорость ветра, видимость, явления погоды, количество и форму облачности, нижнюю и верхнюю границу облачности).


Погода в Шарковщине - сегодня

Время (UTC), дата Ветер
(°,м/с) 
Видим.   Явления Облачность Т
(°С)
Тd
(°С)
f(%) Тe
(°С)
Pmin
(гПа)
dP
(гПа)
Po
(мм)
O2
(г/м3)
Тmin Tmax R s Состояние
почвы
21 10.11.18 120 (ЮВ) 4500 м  слаб. морось  10/10 200 м 
[Frnb]
+3.8 +3.3 97 +3  1024.5  0.9  756  300           
00 11.11.18 130 (ЮВ) 6000 м  дымка{морось}  10/10 200 м 
[St]
+3.6 +2.6 93 +2  1025.2  0.7  757  301           
03 11.11.18 110 (В) 8000 м  дымка  10/10 200 м 
[St]
+3.6 +2.6 93 +2  1026  0.8  757  301      0.0     
06 11.11.18 140 (ЮВ) 10 км    10/10 300 м 
[St]
+3.4 +2.1 91 +2  1027.1  1.1  758  301  +3.3    0.0     
09 11.11.18 120 (ЮВ) 16000 м    10/10 300 м 
[St]
+3.8 +2.3 90 +2  1028.3  1.2  759  301           
15 11.11.18 130 (ЮВ) 5-10{11}  15000 м    10/10 300 м 
[St]
+3.2 +1.7 90 +1  1029.3  0.4  760  302           
18 11.11.18 140 (ЮВ) 4{11}  20000 м    10/10 300 м 
[St]
+3.2 +0.8 84 +1  1029.8  0.5  760  303    +3.8       
00 12.11.18 140 (ЮВ) 4-11{13}  20000 м    10/10 300 м 
[St]
+2.7 +0.6 86 +1  1030.1  -0.3  760  303           
03 12.11.18 150 (ЮВ) 5-10{13}  14000 м    10/10 300 м 
[St]
+1.9 +0.3 89 -1  1030.9  0.7  761  304           
12 12.11.18 160 (Ю) 5-11{11}  17000 м    10/10 300 м 
[St]
+2.6 +0.2 84 1031.5  -0.6  761  304           
15 12.11.18 160 (Ю) 4{10}  17000 м    10/10 300 м 
[St]
+2.6 +0.8 88 +1  1031.4  -0.1  761  304           
18 12.11.18 160 (Ю) 5-11{12}  15000 м    10/10 600 м 
[St]
+2.5 +0.9 89 1031.4    761  304    +2.8       
00 13.11.18 140 (ЮВ) 4{10}  7000 м  слаб. дождь  10/10 300 м 
[Frnb|Ns]
+1.8 +0.7 92 1029.9  -1.1  760  304           
03 13.11.18 170 (Ю) 7000 м  дымка{дождь}  10/10 300 м 
[St]
+1.7 +0.9 94 1029.2  -0.7  759  304      0.4     
06 13.11.18 170 (Ю) 4{10}  12000 м  {дождь}  10/10 300 м 
[St]
+1.9 +0.6 91 1027.6  -1.5  758  303  +1.3    0.4     
12 13.11.18 180 (Ю) 4{13}  14000 м    10/10 200 м 
[St]
+3.3 +1.2 86 +1  1025.7  -1.2  757  301           
03 14.11.18 160 (Ю) 4300 м  слаб. дождь  10/10 240 м 
[Frnb|Ns]
+2.4 +1.9 97 +1  1017.6  -1.5  751  300      13     
06 14.11.18 140 (ЮВ) 4500 м  слаб. дождь  10/10 240 м 
[Frnb|Ns]
+1.8 +1.5 98 +1  1017.4  -0.3  751  300  +1.6    15     
12 14.11.18 350 (С) 7000 м  слаб. дождь  10/10 180 м 
[Frnb|Ns]
+4.1 +3.9 99 +5  1019.7  1.7  753  298           
18 14.11.18 070 (В) 5000 м  слаб. морось{дождь}  10/10 240 м 
[Frnb]
+5.1 +4.6 97 +6  1022.9  1.4  755  298    +5.5     
21 14.11.18 100 (В) 4200 м  слаб. морось{дождь}  10/10 150 м 
[Frnb]
+4 +3.8 99 +5  1024.6  1.5  756  300           
03 15.11.18 060 (СВ) 1400 м  дымка{дождь}  10/10 270 м 
[St]
+3.1 +2.8 98 +4  1028.4  2.1  759  302         
06 15.11.18 020 (С) 6000 м  дымка{дождь}  10/10 180 м 
[St]
+2.7 +2.4 98 +2  1030.7  2.2  761  303  +2.4       
09 15.11.18 070 (В) 11000 м    10/10 180 м 
[St]
+3.1 +2.6 97 +4  1032.9  2.2  762  303           
15 15.11.18 070 (В) 9000 м    10/10 210 м 
[St]
+2 +1.2 94 +3  1036.3  1.2  765  306           
Время (UTC), дата Ветер
(°,м/с) 
Видим.   Явления Облачность Т
(°С)
Тd
(°С)
f(%) Тe
(°С)
Pmin
(гПа)
dP
(гПа)
Po
(мм)
O2
(г/м3)
Тmin Tmax R s Состояние
почвы

Для получения пояснительной информации подведите курсор к названию столбца.

ПОГОДА в Шарковщине - архив

Всё, что Вы хотите узнать о погоде в Шарковщине - удобно и подробно!

Выберите нужную дату (начиная с 1 января 2015* года) и нажмите кнопку "Найти".
Будут отображены архивные сводки погоды по пункту Шарковщина, начиная с указанной даты.


Отображать данные в формате CSV (для использования в таблицах Excel)


Внимание! Наш архив погоды предназначен исключительно для личного некоммерческого использования в познавательных целях. Если Вам необходимы официальные справки о состоянии погоды (для производственных, юридических, коммерческих и т.п. целей), обращайтесь в органы Росгидромета.

*Примечание: данная дата относится к архиву по метеостанциям СССР (Россия, СНГ, Балтия).
Архив по метеостанциям Зарубежной Европы и Азии (кроме Китая) хранится 10 дней, по другим регионам земного шара (Китай, Африка, Америка, Австралия, Океания) - 1 день.

Шарковщина - район местоположения метеостанции


Название, широта, долгота, высота метеостанции:
Шарковщина 55.4°ш. 27.5°д. 131 м над ур. моря [Беларусь]

Дополнительная информация

В oтличие oт бoльшинства пoгoдных сайтoв мы публикуем пoдрoбную метеoинфoрмацию в детальнoм прoфессиoнальнoм фoрмате.

Характеристики температуры и влажнoсти вoздуха измеряются на высoте 2 м в тени вдали oт зданий и деревьев.
Скoрoсть ветра измеряется на высoте 10 м (на урoвне рoста челoвека скoрoсть ветра ниже в 1.5-2 раза). Если метеoстанция нахoдится в гoрoде или в лесу, тo скoрoсть ветра занижена на 2-4 м/с пo сравнению с oткрытым местoм. Скoрoсть ветра над акватoриями крупных рек и oзёр, а также на вершинах хoлмoв на 2-5 м/с выше, чем в oбычных услoвиях.
Атмoсфернoе давление в разных тoчках местнoсти мoжет значительнo oтличаться oт давления на метеoстанции, в зависимoсти oт услoвий рельефа (при пoдъёме на 10 м давление пoнижается примернo на 1 мм рт.ст.).